User: anonymous   Login
Location: Plymouth
(43.7570°N, 71.6890°W)
Time: 20:39:51
(UTC-05:00)
Language:

Meteor 1-28 Rocket - Orbit

View from above orbital plane
View from above orbital plane
View from above satellite
View from above satellite

Ground track
Ground track

The orbit data is extracted from the following two-line orbital elements,

1 10114U 77057B   14324.80770703  .00004364  00000-0  24262-3 0  4013
2 10114 097.2484 177.7665 0015004 004.6023 355.5344 15.14089196 41252
Epoch (UTC): 20 November 2014 19:23:05
Eccentricity: 0.0015004
inclination: 97.2484°
perigee height: 513 km
apogee height: 534 km
right ascension of ascending node: 177.7665°
argument of perigee: 4.6023°
revolutions per day: 15.14089196
mean anomaly at epoch: 355.5344°
orbit number at epoch: 4125

The dashed part of the orbit path shows where the satellite is in the earth's shadow,  

DLR